| time (UTC) | temp C | wind direction | speed KPH | gust KPH | rain 1hr cm | rain 24hr cm | rain mn cm | humidity % | barometer mb |
| 20260505130158 | 15 | 181 | 1.6 | 1.6 | 0.00 | 0.03 | 0.03 | 82 | 1008.9 |
| 20260505124648 | 15 | 177 | 0.0 | 0.0 | 0.00 | 0.03 | 0.03 | 83 | 1008.9 |
| 20260505124145 | 14 | 292 | 1.6 | 1.6 | 0.00 | 0.03 | 0.03 | 84 | 1008.8 |
| 20260505123641 | 14 | 225 | 6.4 | 6.4 | 0.00 | 0.03 | 0.03 | 84 | 1008.7 |
| 20260505123138 | 14 | 241 | 3.2 | 3.2 | 0.00 | 0.03 | 0.03 | 85 | 1008.8 |
| 20260505122629 | 13 | 245 | 1.6 | 1.6 | 0.00 | 0.03 | 0.03 | 85 | 1008.8 |
| 20260505122126 | 13 | 284 | 1.6 | 1.6 | 0.00 | 0.03 | 0.03 | 85 | 1008.8 |
| 20260505121622 | 13 | 282 | 6.4 | 6.4 | 0.00 | 0.03 | 0.03 | 85 | 1008.6 |
| 20260505121119 | 13 | 254 | 3.2 | 3.2 | 0.00 | 0.03 | 0.03 | 85 | 1008.6 |
| 20260505120615 | 13 | 187 | 3.2 | 3.2 | 0.00 | 0.03 | 0.03 | 85 | 1008.6 |
| 20260505120111 | 13 | 249 | 1.6 | 3.2 | 0.00 | 0.03 | 0.03 | 85 | 1008.3 |
| 20260505115605 | 13 | 302 | 3.2 | 11.3 | 0.00 | 0.03 | 0.03 | 85 | 1008.3 |
| 20260505115103 | 13 | 218 | 6.4 | 9.7 | 0.00 | 0.03 | 0.03 | 85 | 1008.1 |
| 20260505114600 | 13 | 243 | 1.6 | 4.8 | 0.00 | 0.03 | 0.03 | 85 | 1007.8 |
| 20260505114056 | 13 | 235 | 3.2 | 9.7 | 0.00 | 0.03 | 0.03 | 85 | 1007.9 |
| 20260505113553 | 13 | 263 | 3.2 | 3.2 | 0.00 | 0.03 | 0.03 | 85 | 1007.8 |
| 20260505113049 | 13 | 121 | 3.2 | 6.4 | 0.00 | 0.03 | 0.03 | 85 | 1007.6 |
| 20260505112546 | 13 | 151 | 4.8 | 6.4 | 0.00 | 0.03 | 0.03 | 85 | 1007.6 |
| 20260505112045 | 13 | 243 | 3.2 | 11.3 | 0.00 | 0.03 | 0.03 | 85 | 1008.0 |
| 20260505111544 | 13 | 237 | 0.0 | 6.4 | 0.00 | 0.03 | 0.03 | 86 | 1007.8 |
| 20260505111040 | 13 | 259 | 3.2 | 4.8 | 0.00 | 0.03 | 0.03 | 86 | 1007.9 |
| 20260505110536 | 13 | 261 | 3.2 | 4.8 | 0.00 | 0.03 | 0.03 | 86 | 1008.1 |
| 20260505102009 | 15 | 277 | 6.4 | 6.4 | 0.00 | 0.00 | 0.00 | 79 | 1008.1 |
| 20260505101507 | 15 | 288 | 0.0 | 14.5 | 0.00 | 0.00 | 0.00 | 76 | 1008.0 |
| 20260505101003 | 15 | 180 | 1.6 | 1.6 | 0.00 | 0.00 | 0.00 | 75 | 1008.0 |
| 20260505100500 | 15 | 171 | 1.6 | 1.6 | 0.00 | 0.00 | 0.00 | 74 | 1007.8 |
| 20260505095957 | -17 | 0.0 | 0.0 | 0.00 | 0.00 | 0.00 | 1007.8 | ||
| 20260505095453 | 15 | 214 | 3.2 | 4.8 | 0.00 | 0.00 | 0.00 | 73 | 1007.5 |
| 20260505094949 | 15 | 214 | 3.2 | 4.8 | 0.00 | 0.00 | 0.00 | 73 | 1007.7 |
| 20260505094446 | 15 | 257 | 4.8 | 9.7 | 0.00 | 0.00 | 0.00 | 73 | 1007.8 |
| 20260505093943 | 15 | 197 | 6.4 | 9.7 | 0.00 | 0.00 | 0.00 | 73 | 1007.7 |
| 20260505093439 | 16 | 241 | 3.2 | 4.8 | 0.00 | 0.00 | 0.00 | 73 | 1007.7 |
| 20260505092937 | 16 | 241 | 3.2 | 4.8 | 0.00 | 0.00 | 0.00 | 73 | 1007.8 |
| 20260505092434 | 16 | 243 | 3.2 | 4.8 | 0.00 | 0.00 | 0.00 | 73 | 1007.8 |
| 20260505091932 | 16 | 266 | 4.8 | 4.8 | 0.00 | 0.00 | 0.00 | 72 | 1007.7 |
| 20260505091429 | 16 | 239 | 3.2 | 3.2 | 0.00 | 0.00 | 0.00 | 72 | 1007.8 |
| 20260505090927 | 16 | 308 | 1.6 | 3.2 | 0.00 | 0.00 | 0.00 | 71 | 1007.8 |
| 20260505090425 | 16 | 246 | 4.8 | 11.3 | 0.00 | 0.00 | 0.00 | 70 | 1007.8 |
| 20260505085922 | 16 | 264 | 4.8 | 6.4 | 0.00 | 0.00 | 0.00 | 70 | 1007.6 |
| 20260505085420 | 16 | 249 | 1.6 | 4.8 | 0.00 | 0.00 | 0.00 | 70 | 1007.5 |
| 20260505084918 | 16 | 266 | 4.8 | 14.5 | 0.00 | 0.00 | 0.00 | 69 | 1007.2 |
| 20260505084416 | 16 | 191 | 1.6 | 6.4 | 0.00 | 0.00 | 0.00 | 69 | 1007.2 |
| 20260505083914 | 17 | 165 | 6.4 | 9.7 | 0.00 | 0.00 | 0.00 | 68 | 1007.1 |
| 20260505083411 | 17 | 197 | 4.8 | 12.9 | 0.00 | 0.00 | 0.00 | 68 | 1006.9 |
| 20260505082907 | 17 | 194 | 4.8 | 9.7 | 0.00 | 0.00 | 0.00 | 67 | 1007.0 |
| 20260505082402 | 17 | 243 | 8.0 | 16.1 | 0.00 | 0.00 | 0.00 | 67 | 1007.1 |
| 20260505081900 | 17 | 249 | 4.8 | 4.8 | 0.00 | 0.00 | 0.00 | 66 | 1007.0 |
| 20260505081356 | 17 | 284 | 6.4 | 6.4 | 0.00 | 0.00 | 0.00 | 66 | 1006.8 |
| 20260505080853 | 17 | 99 | 8.0 | 14.5 | 0.00 | 0.00 | 0.00 | 65 | 1006.9 |
| 20260505080349 | 17 | 186 | 3.2 | 12.9 | 0.00 | 0.00 | 0.00 | 64 | 1006.8 |
| 20260505075845 | 18 | 206 | 6.4 | 12.9 | 0.00 | 0.00 | 0.00 | 63 | 1006.9 |
| 20260505075342 | 18 | 63 | 3.2 | 4.8 | 0.00 | 0.00 | 0.00 | 62 | 1006.8 |
| 20260505074839 | 18 | 350 | 1.6 | 4.8 | 0.00 | 0.00 | 0.00 | 62 | 1006.5 |
| 20260505074336 | 18 | 297 | 4.8 | 14.5 | 0.00 | 0.00 | 0.00 | 62 | 1006.8 |
| 20260505073833 | 18 | 241 | 4.8 | 9.7 | 0.00 | 0.00 | 0.00 | 64 | 1006.7 |
| 20260505073331 | 18 | 120 | 6.4 | 9.7 | 0.00 | 0.00 | 0.00 | 64 | 1006.6 |
| 20260505072828 | 18 | 270 | 8.0 | 12.9 | 0.00 | 0.00 | 0.00 | 59 | 1006.4 |
| 20260505072324 | 18 | 278 | 6.4 | 12.9 | 0.00 | 0.00 | 0.00 | 60 | 1006.4 |
| 20260505071820 | 18 | 220 | 6.4 | 9.7 | 0.00 | 0.00 | 0.00 | 60 | 1006.4 |
| 20260505071317 | 18 | 313 | 6.4 | 11.3 | 0.00 | 0.00 | 0.00 | 60 | 1006.1 |
| 20260505070815 | 18 | 225 | 9.7 | 14.5 | 0.00 | 0.00 | 0.00 | 58 | 1006.1 |
| 20260505070311 | 18 | 141 | 3.2 | 6.4 | 0.00 | 0.00 | 0.00 | 60 | 1006.4 |
| 20260505065806 | 18 | 135 | 3.2 | 6.4 | 0.00 | 0.00 | 0.00 | 60 | 1006.2 |
| 20260505065304 | 18 | 232 | 3.2 | 4.8 | 0.00 | 0.00 | 0.00 | 60 | 1006.2 |
| 20260505064800 | 18 | 155 | 4.8 | 6.4 | 0.00 | 0.00 | 0.00 | 59 | 1006.0 |
| 20260505064257 | 18 | 147 | 11.3 | 14.5 | 0.00 | 0.00 | 0.00 | 59 | 1006.0 |
| 20260505063755 | 18 | 274 | 6.4 | 12.9 | 0.00 | 0.00 | 0.00 | 60 | 1006.3 |
| 20260505063252 | 18 | 278 | 4.8 | 6.4 | 0.00 | 0.00 | 0.00 | 61 | 1006.4 |
| 20260505062749 | 18 | 180 | 3.2 | 4.8 | 0.00 | 0.00 | 0.00 | 61 | 1006.4 |
| 20260505062246 | 18 | 225 | 1.6 | 3.2 | 0.00 | 0.00 | 0.00 | 63 | 1006.2 |
| 20260505061742 | 18 | 199 | 4.8 | 6.4 | 0.00 | 0.00 | 0.00 | 63 | 1006.4 |
| 20260505061240 | 18 | 227 | 0.0 | 0.0 | 0.00 | 0.00 | 0.00 | 64 | 1006.4 |
| 20260505060737 | 18 | 204 | 4.8 | 6.4 | 0.00 | 0.00 | 0.00 | 62 | 1006.4 |
| 20260505060235 | 18 | 204 | 4.8 | 6.4 | 0.00 | 0.00 | 0.00 | 62 | 1006.5 |
| 20260505055729 | 18 | 354 | 4.8 | 6.4 | 0.00 | 0.00 | 0.00 | 62 | 1006.7 |
| 20260505055226 | -17 | 0.0 | 0.0 | 0.00 | 0.00 | 0.00 | 1006.6 | ||
| 20260505054724 | 18 | 149 | 3.2 | 6.4 | 0.00 | 0.00 | 0.00 | 63 | 1006.8 |
| 20260505054221 | -17 | 0.0 | 0.0 | 0.00 | 0.00 | 0.00 | 1006.6 | ||
| 20260505053720 | -17 | 0.0 | 0.0 | 0.00 | 0.00 | 0.00 | 1006.6 | ||
| 20260505053215 | -17 | 0.0 | 0.0 | 0.00 | 0.00 | 0.00 | 1006.8 | ||
| 20260505052713 | -17 | 0.0 | 0.0 | 0.00 | 0.00 | 0.00 | 1006.9 | ||
| 20260505052209 | 18 | 301 | 8.0 | 11.3 | 0.00 | 0.00 | 0.00 | 65 | 1006.8 |
| 20260505051707 | 18 | 301 | 8.0 | 11.3 | 0.00 | 0.00 | 0.00 | 65 | 1007.0 |
| 20260505051205 | 18 | 154 | 6.4 | 9.7 | 0.00 | 0.00 | 0.00 | 64 | 1007.0 |
| 20260505050657 | -17 | 0.0 | 0.0 | 0.00 | 0.00 | 0.00 | 1006.9 | ||
| 20260505050155 | -17 | 0.0 | 0.0 | 0.00 | 0.00 | 0.00 | 1007.2 | ||
| 20260505041625 | -17 | 0.0 | 0.0 | 0.00 | 0.00 | 0.00 | 1007.1 | ||
| 20260505041123 | -17 | 0.0 | 0.0 | 0.00 | 0.00 | 0.00 | 1007.3 | ||
| 20260505040619 | -17 | 0.0 | 0.0 | 0.00 | 0.00 | 0.00 | 1007.2 | ||
| 20260505040117 | -17 | 0.0 | 0.0 | 0.00 | 0.00 | 0.00 | 1007.3 | ||
| 20260505035613 | 17 | 132 | 3.2 | 3.2 | 0.00 | 0.00 | 0.00 | 70 | 1007.2 |
| 20260505035109 | 17 | 132 | 3.2 | 3.2 | 0.00 | 0.00 | 0.00 | 70 | 1007.2 |
| 20260505034606 | -17 | 0.0 | 0.0 | 0.00 | 0.00 | 0.00 | 1007.2 | ||
| 20260505034103 | -17 | 0.0 | 0.0 | 0.00 | 0.00 | 0.00 | 1007.2 | ||
| 20260505033559 | -17 | 0.0 | 0.0 | 0.00 | 0.00 | 0.00 | 1007.2 | ||
| 20260505033058 | 17 | 255 | 4.8 | 9.7 | 0.00 | 0.00 | 0.00 | 69 | 1007.5 |
| 20260505032555 | 17 | 255 | 4.8 | 9.7 | 0.00 | 0.00 | 0.00 | 69 | 1007.1 |
| 20260505032051 | -17 | 0.0 | 0.0 | 0.00 | 0.00 | 0.00 | 1007.6 | ||
| 20260505031549 | -17 | 0.0 | 0.0 | 0.00 | 0.00 | 0.00 | 1007.6 | ||
| 20260505031045 | -17 | 0.0 | 0.0 | 0.00 | 0.00 | 0.00 | 1007.2 | ||
| 20260505030542 | -17 | 0.0 | 0.0 | 0.00 | 0.00 | 0.00 | 1007.2 | ||
| 20260505030038 | -17 | 0.0 | 0.0 | 0.00 | 0.00 | 0.00 | 1007.6 | ||
| 20260505025534 | -17 | 0.0 | 0.0 | 0.00 | 0.00 | 0.00 | 1007.5 | ||
| 20260505025033 | -17 | 0.0 | 0.0 | 0.00 | 0.00 | 0.00 | 1007.5 | ||
| 20260505024530 | -17 | 0.0 | 0.0 | 0.00 | 0.00 | 0.00 | 1007.3 | ||
| 20260505024027 | -17 | 0.0 | 0.0 | 0.00 | 0.00 | 0.00 | 1007.3 | ||
| 20260505023524 | -17 | 0.0 | 0.0 | 0.00 | 0.00 | 0.00 | 1007.2 | ||
| 20260505023022 | -17 | 0.0 | 0.0 | 0.00 | 0.00 | 0.00 | 1007.3 | ||
| 20260505022519 | -17 | 0.0 | 0.0 | 0.00 | 0.00 | 0.00 | 1007.3 | ||
| 20260505022016 | 17 | 188 | 3.2 | 4.8 | 0.00 | 0.00 | 0.00 | 67 | 1007.6 |
| 20260505021513 | 17 | 188 | 3.2 | 4.8 | 0.00 | 0.00 | 0.00 | 67 | 1007.6 |
| 20260505021009 | 17 | 169 | 1.6 | 6.4 | 0.00 | 0.00 | 0.00 | 68 | 1007.5 |
| 20260505020508 | 17 | 149 | 3.2 | 9.7 | 0.00 | 0.00 | 0.00 | 68 | 1007.5 |
| 20260505020006 | 17 | 165 | 3.2 | 4.8 | 0.00 | 0.00 | 0.00 | 67 | 1007.5 |
| 20260505015503 | 17 | 197 | 3.2 | 4.8 | 0.00 | 0.00 | 0.00 | 67 | 1007.5 |
| 20260505015000 | 17 | 139 | 3.2 | 3.2 | 0.00 | 0.00 | 0.00 | 67 | 1007.3 |
| 20260505014457 | 17 | 168 | 1.6 | 3.2 | 0.00 | 0.00 | 0.00 | 66 | 1007.2 |
| 20260505013954 | 17 | 264 | 1.6 | 4.8 | 0.00 | 0.00 | 0.00 | 66 | 1007.2 |
| 20260505013451 | 17 | 164 | 3.2 | 4.8 | 0.00 | 0.00 | 0.00 | 65 | 1007.5 |
| 20260505012948 | 17 | 141 | 3.2 | 6.4 | 0.00 | 0.00 | 0.00 | 65 | 1007.3 |
| 20260505012446 | 18 | 189 | 3.2 | 4.8 | 0.00 | 0.00 | 0.00 | 64 | 1007.3 |
| 20260505011943 | 18 | 193 | 0.0 | 3.2 | 0.00 | 0.00 | 0.00 | 64 | 1007.5 |
| 20260505011439 | 18 | 243 | 1.6 | 3.2 | 0.00 | 0.00 | 0.00 | 64 | 1007.3 |
| 20260505010936 | 18 | 233 | 3.2 | 3.2 | 0.00 | 0.00 | 0.00 | 64 | 1007.3 |
| 20260505010431 | 18 | 205 | 0.0 | 0.0 | 0.00 | 0.00 | 0.00 | 63 | 1007.2 |
| 20260505005928 | 18 | 205 | 1.6 | 4.8 | 0.00 | 0.00 | 0.00 | 63 | 1007.0 |
| 20260505005425 | 18 | 246 | 3.2 | 4.8 | 0.00 | 0.00 | 0.00 | 62 | 1007.1 |
| 20260505004922 | 18 | 234 | 1.6 | 3.2 | 0.00 | 0.00 | 0.00 | 62 | 1007.1 |
| 20260505004418 | -17 | 0.0 | 0.0 | 0.00 | 0.00 | 0.00 | 1007.1 | ||
| 20260505003915 | -17 | 0.0 | 0.0 | 0.00 | 0.00 | 0.00 | 1007.1 | ||
| 20260505003413 | -17 | 0.0 | 0.0 | 0.00 | 0.00 | 0.00 | 1007.1 | ||
| 20260505002909 | -17 | 0.0 | 0.0 | 0.00 | 0.00 | 0.00 | 1007.0 | ||
| 20260505002405 | -17 | 0.0 | 0.0 | 0.00 | 0.00 | 0.00 | 1007.1 | ||
| 20260505001904 | -17 | 0.0 | 0.0 | 0.00 | 0.00 | 0.00 | 1007.1 | ||
| 20260505001401 | 18 | 196 | 6.4 | 6.4 | 0.00 | 0.00 | 0.00 | 58 | 1006.9 |
| 20260505000858 | 18 | 196 | 6.4 | 6.4 | 0.00 | 0.00 | 0.00 | 58 | 1006.9 |
| 20260505000358 | 19 | 275 | 3.2 | 4.8 | 0.00 | 0.00 | 0.00 | 57 | 1007.1 |
| 20260504235852 | 19 | 275 | 3.2 | 4.8 | 0.00 | 0.00 | 0.00 | 57 | 1007.0 |
| 20260504235349 | -17 | 0.0 | 0.0 | 0.00 | 0.00 | 0.00 | 1007.0 | ||
| 20260504234845 | -17 | 0.0 | 0.0 | 0.00 | 0.00 | 0.00 | 1006.9 | ||
| 20260504234343 | -17 | 0.0 | 0.0 | 0.00 | 0.00 | 0.00 | 1006.7 | ||
| 20260504233840 | -17 | 0.0 | 0.0 | 0.00 | 0.00 | 0.00 | 1006.6 | ||
| 20260504233335 | -17 | 0.0 | 0.0 | 0.00 | 0.00 | 0.00 | 1006.6 | ||
| 20260504232833 | -17 | 0.0 | 0.0 | 0.00 | 0.00 | 0.00 | 1006.5 | ||
| 20260504232329 | -17 | 0.0 | 0.0 | 0.00 | 0.00 | 0.00 | 1006.4 | ||
| 20260504231826 | 21 | 274 | 4.8 | 6.4 | 0.00 | 0.00 | 0.00 | 50 | 1006.3 |
| 20260504231323 | 21 | 274 | 4.8 | 6.4 | 0.00 | 0.00 | 0.00 | 50 | 1006.2 |
| 20260504230819 | -17 | 0.0 | 0.0 | 0.00 | 0.00 | 0.00 | 1006.4 | ||
| 20260504230317 | -17 | 0.0 | 0.0 | 0.00 | 0.00 | 0.00 | 1006.6 | ||
| 20260504225816 | 21 | 327 | 6.4 | 9.7 | 0.00 | 0.00 | 0.00 | 50 | 1006.5 |
| 20260504225311 | -17 | 0.0 | 0.0 | 0.00 | 0.00 | 0.00 | 1006.6 | ||
| 20260504224809 | -17 | 0.0 | 0.0 | 0.00 | 0.00 | 0.00 | 1006.6 | ||
| 20260504224306 | 21 | 247 | 9.7 | 12.9 | 0.00 | 0.00 | 0.00 | 51 | 1006.7 |
| 20260504223802 | 21 | 247 | 9.7 | 12.9 | 0.00 | 0.00 | 0.00 | 51 | 1006.8 |
| 20260504223258 | 21 | 281 | 9.7 | 12.9 | 0.00 | 0.00 | 0.00 | 51 | 1007.0 |
| 20260504222755 | 21 | 213 | 6.4 | 9.7 | 0.00 | 0.00 | 0.00 | 53 | 1006.9 |
| 20260504222252 | 21 | 287 | 9.7 | 16.1 | 0.00 | 0.00 | 0.00 | 52 | 1006.8 |
| 20260504221750 | 21 | 246 | 6.4 | 12.9 | 0.00 | 0.00 | 0.00 | 53 | 1007.0 |
| 20260504221247 | 21 | 225 | 1.6 | 3.2 | 0.00 | 0.00 | 0.00 | 54 | 1006.9 |
| 20260504220743 | 21 | 178 | 3.2 | 4.8 | 0.00 | 0.00 | 0.00 | 53 | 1006.8 |
| 20260504220240 | 21 | 299 | 6.4 | 9.7 | 0.00 | 0.00 | 0.00 | 54 | 1006.9 |
| 20260504215737 | 21 | 115 | 4.8 | 12.9 | 0.00 | 0.00 | 0.00 | 54 | 1006.9 |
| 20260504215234 | 21 | 290 | 9.7 | 17.7 | 0.00 | 0.00 | 0.00 | 54 | 1007.2 |
| 20260504214730 | 21 | 282 | 8.0 | 16.1 | 0.00 | 0.00 | 0.00 | 54 | 1007.1 |
| 20260504214226 | 21 | 263 | 6.4 | 12.9 | 0.00 | 0.00 | 0.00 | 55 | 1007.1 |
| 20260504213723 | 21 | 243 | 3.2 | 11.3 | 0.00 | 0.00 | 0.00 | 54 | 1007.2 |
| 20260504213220 | 21 | 269 | 3.2 | 9.7 | 0.00 | 0.00 | 0.00 | 55 | 1007.0 |
| 20260504212717 | 21 | 261 | 6.4 | 16.1 | 0.00 | 0.00 | 0.00 | 54 | 1007.2 |
| 20260504212214 | 21 | 305 | 3.2 | 6.4 | 0.00 | 0.00 | 0.00 | 54 | 1007.3 |
| 20260504211711 | 21 | 262 | 9.7 | 16.1 | 0.00 | 0.00 | 0.00 | 54 | 1006.9 |
| 20260504211207 | 21 | 258 | 6.4 | 9.7 | 0.00 | 0.00 | 0.00 | 53 | 1007.0 |
| 20260504210704 | 22 | 171 | 3.2 | 6.4 | 0.00 | 0.00 | 0.00 | 51 | 1007.0 |
| 20260504210201 | 22 | 240 | 4.8 | 14.5 | 0.00 | 0.00 | 0.00 | 51 | 1006.9 |
| 20260504205658 | 22 | 256 | 6.4 | 12.9 | 0.00 | 0.00 | 0.00 | 51 | 1006.7 |
| 20260504205155 | 22 | 127 | 6.4 | 12.9 | 0.00 | 0.00 | 0.00 | 50 | 1006.6 |
| 20260504204654 | 22 | 174 | 6.4 | 16.1 | 0.00 | 0.00 | 0.00 | 52 | 1007.0 |
| 20260504204152 | 22 | 141 | 3.2 | 14.5 | 0.00 | 0.00 | 0.00 | 51 | 1007.1 |
| 20260504203651 | 22 | 289 | 8.0 | 16.1 | 0.00 | 0.00 | 0.00 | 53 | 1007.1 |
| 20260504203149 | 21 | 265 | 9.7 | 20.9 | 0.00 | 0.00 | 0.00 | 53 | 1007.2 |
| 20260504202648 | 21 | 193 | 6.4 | 11.3 | 0.00 | 0.00 | 0.00 | 54 | 1007.2 |
| 20260504202146 | 21 | 286 | 1.6 | 16.1 | 0.00 | 0.00 | 0.00 | 53 | 1007.6 |
| 20260504201643 | 21 | 256 | 9.7 | 14.5 | 0.00 | 0.00 | 0.00 | 53 | 1007.3 |
| 20260504201140 | 21 | 296 | 8.0 | 12.9 | 0.00 | 0.00 | 0.00 | 55 | 1007.6 |
| 20260504200637 | 21 | 204 | 8.0 | 14.5 | 0.00 | 0.00 | 0.00 | 53 | 1007.3 |
| 20260504200134 | 21 | 274 | 3.2 | 6.4 | 0.00 | 0.00 | 0.00 | 54 | 1007.5 |
| 20260504195630 | 22 | 238 | 6.4 | 12.9 | 0.00 | 0.00 | 0.00 | 53 | 1007.6 |
| 20260504195126 | 22 | 248 | 4.8 | 16.1 | 0.00 | 0.00 | 0.00 | 52 | 1007.5 |
| 20260504194623 | 22 | 284 | 4.8 | 16.1 | 0.00 | 0.00 | 0.00 | 52 | 1007.5 |
| 20260504194119 | 22 | 216 | 6.4 | 12.9 | 0.00 | 0.00 | 0.00 | 53 | 1007.7 |
| 20260504193615 | 21 | 214 | 4.8 | 12.9 | 0.00 | 0.00 | 0.00 | 52 | 1008.0 |
| 20260504193114 | 22 | 294 | 6.4 | 11.3 | 0.00 | 0.00 | 0.00 | 54 | 1007.8 |
| 20260504192612 | 22 | 314 | 6.4 | 11.3 | 0.00 | 0.00 | 0.00 | 51 | 1008.1 |
| 20260504192109 | 22 | 152 | 4.8 | 9.7 | 0.00 | 0.00 | 0.00 | 52 | 1008.0 |
| 20260504191608 | 21 | 292 | 1.6 | 11.3 | 0.00 | 0.00 | 0.00 | 55 | 1008.0 |
| 20260504191103 | 21 | 162 | 4.8 | 9.7 | 0.00 | 0.00 | 0.00 | 52 | 1008.0 |
| 20260504190600 | 21 | 198 | 12.9 | 16.1 | 0.00 | 0.00 | 0.00 | 52 | 1008.2 |
| 20260504190056 | 21 | 275 | 4.8 | 9.7 | 0.00 | 0.00 | 0.00 | 52 | 1008.1 |
| 20260504185553 | 21 | 282 | 3.2 | 12.9 | 0.00 | 0.00 | 0.00 | 54 | 1008.2 |
| 20260504185050 | 21 | 176 | 12.9 | 14.5 | 0.00 | 0.00 | 0.00 | 52 | 1008.2 |
| 20260504184545 | 21 | 288 | 6.4 | 11.3 | 0.00 | 0.00 | 0.00 | 53 | 1008.5 |
| 20260504184040 | 21 | 178 | 4.8 | 11.3 | 0.00 | 0.00 | 0.00 | 54 | 1008.3 |
| 20260504183538 | 21 | 220 | 12.9 | 16.1 | 0.00 | 0.00 | 0.00 | 52 | 1008.4 |
| 20260504183036 | 21 | 258 | 4.8 | 11.3 | 0.00 | 0.00 | 0.00 | 53 | 1008.6 |
| 20260504182532 | 21 | 282 | 4.8 | 6.4 | 0.00 | 0.00 | 0.00 | 55 | 1008.6 |
| 20260504182030 | 21 | 121 | 4.8 | 9.7 | 0.00 | 0.00 | 0.00 | 53 | 1008.6 |
| 20260504181527 | 21 | 281 | 0.0 | 16.1 | 0.00 | 0.00 | 0.00 | 54 | 1008.8 |
| 20260504181025 | 21 | 227 | 9.7 | 12.9 | 0.00 | 0.00 | 0.00 | 53 | 1008.8 |
| 20260504180524 | 20 | 284 | 3.2 | 12.9 | 0.00 | 0.00 | 0.00 | 56 | 1008.8 |
| 20260504180022 | 20 | 241 | 9.7 | 17.7 | 0.00 | 0.00 | 0.00 | 54 | 1008.5 |
| 20260504175519 | 20 | 139 | 4.8 | 6.4 | 0.00 | 0.00 | 0.00 | 54 | 1008.5 |
| 20260504175016 | 20 | 332 | 6.4 | 16.1 | 0.00 | 0.00 | 0.00 | 56 | 1008.7 |
| 20260504174514 | 20 | 244 | 8.0 | 9.7 | 0.00 | 0.00 | 0.00 | 55 | 1008.8 |
| 20260504174011 | 20 | 243 | 3.2 | 17.7 | 0.00 | 0.00 | 0.00 | 56 | 1008.9 |
| 20260504173507 | 20 | 266 | 3.2 | 11.3 | 0.00 | 0.00 | 0.00 | 55 | 1008.9 |
| 20260504173005 | 19 | 281 | 3.2 | 9.7 | 0.00 | 0.00 | 0.00 | 58 | 1008.9 |
| 20260504172501 | 19 | 161 | 6.4 | 16.1 | 0.00 | 0.00 | 0.00 | 58 | 1009.0 |
| 20260504171957 | 19 | 273 | 8.0 | 14.5 | 0.00 | 0.00 | 0.00 | 57 | 1009.1 |
| 20260504171454 | 20 | 163 | 3.2 | 9.7 | 0.00 | 0.00 | 0.00 | 54 | 1009.0 |
| 20260504170951 | 20 | 250 | 3.2 | 6.4 | 0.00 | 0.00 | 0.00 | 54 | 1009.0 |
| 20260504170447 | 20 | 277 | 3.2 | 6.4 | 0.00 | 0.00 | 0.00 | 57 | 1009.3 |
| 20260504160407 | 18 | 263 | 8.0 | 16.1 | 0.00 | 0.00 | 0.00 | 55 | 1010.0 |
| 20260504150831 | 17 | 259 | 1.6 | 6.4 | 0.00 | 0.00 | 0.00 | 57 | 1009.7 |
| 20260504150328 | 17 | 234 | 0.0 | 9.7 | 0.00 | 0.00 | 0.00 | 58 | 1009.8 |
| 20260504141258 | 16 | 295 | 3.2 | 4.8 | 0.00 | 0.00 | 0.00 | 60 | 1010.0 |
| 20260504140754 | 16 | 252 | 4.8 | 6.4 | 0.00 | 0.00 | 0.00 | 59 | 1010.5 |
| 20260504140250 | 15 | 286 | 4.8 | 6.4 | 0.00 | 0.00 | 0.00 | 60 | 1010.5 |